Previsão horária em Abercorn

Hoje, 11 Abril, Domingo

Tempo Temperatura Precipitação Vento Pressão Humidade
00:00 +13°C° 0 mm 1 m/s 737 mmHg 92%
01:00 +12°C° 0 mm 1 m/s 737 mmHg 93%
02:00 +12°C° 0.1 mm 1 m/s 737 mmHg 94%
03:00 +12°C° 0.1 mm 1 m/s 737 mmHg 95%
04:00 +11°C° 0.1 mm 1 m/s 737 mmHg 96%
05:00 +12°C° 0 mm 1 m/s 737 mmHg 94%
06:00 +12°C° 0 mm 1 m/s 737 mmHg 91%
07:00 +13°C° 0 mm 1 m/s 737 mmHg 89%
08:00 +14°C° 0 mm 1 m/s 737 mmHg 83%
09:00 +16°C° 0 mm 1 m/s 736 mmHg 76%
10:00 +19°C° 0 mm 1 m/s 736 mmHg 70%
11:00 +18°C° 0 mm 2 m/s 736 mmHg 70%
12:00 +18°C° 0 mm 2 m/s 736 mmHg 69%
13:00 +18°C° 0 mm 3 m/s 735 mmHg 69%
14:00 +17°C° 0 mm 3 m/s 735 mmHg 70%
15:00 +17°C° 0 mm 3 m/s 735 mmHg 71%
16:00 +16°C° 0 mm 3 m/s 735 mmHg 73%
17:00 +14°C° 0 mm 3 m/s 735 mmHg 75%
18:00 +13°C° 0 mm 3 m/s 736 mmHg 78%
19:00 +12°C° 0 mm 3 m/s 736 mmHg 81%
20:00 +13°C° 0 mm 2 m/s 736 mmHg 82%
21:00 +12°C° 0 mm 2 m/s 737 mmHg 83%
22:00 +10°C° 0 mm 2 m/s 737 mmHg 83%
23:00 +10°C° 0 mm 2 m/s 737 mmHg 84%

Amanhã, 12 Abril, Segunda-feira

Tempo Temperatura Precipitação Vento Pressão Humidade
00:00 +9°C° 0 mm 2 m/s 737 mmHg 85%
01:00 +9°C° 0 mm 2 m/s 737 mmHg 86%
02:00 +9°C° 0 mm 2 m/s 737 mmHg 86%
03:00 +9°C° 0 mm 2 m/s 737 mmHg 86%
04:00 +9°C° 0 mm 2 m/s 738 mmHg 85%
05:00 +9°C° 0 mm 2 m/s 738 mmHg 83%
06:00 +9°C° 0 mm 2 m/s 738 mmHg 81%
07:00 +9°C° 0 mm 2 m/s 739 mmHg 79%
08:00 +10°C° 0 mm 3 m/s 739 mmHg 72%
09:00 +12°C° 0 mm 3 m/s 739 mmHg 65%
10:00 +13°C° 0 mm 4 m/s 739 mmHg 58%
11:00 +13°C° 0 mm 4 m/s 739 mmHg 58%
12:00 +14°C° 0 mm 4 m/s 739 mmHg 59%
13:00 +14°C° 0 mm 4 m/s 739 mmHg 60%
14:00 +13°C° 0 mm 4 m/s 739 mmHg 62%
15:00 +12°C° 0 mm 4 m/s 739 mmHg 65%
16:00 +12°C° 0 mm 4 m/s 739 mmHg 67%
17:00 +11°C° 0 mm 3 m/s 740 mmHg 68%
18:00 +10°C° 0 mm 3 m/s 740 mmHg 70%
19:00 +9°C° 0 mm 2 m/s 741 mmHg 71%
20:00 +9°C° 0 mm 2 m/s 741 mmHg 73%
21:00 +9°C° 0 mm 1 m/s 741 mmHg 75%
22:00 +9°C° 0 mm 1 m/s 741 mmHg 76%
23:00 +8°C° 0 mm 1 m/s 741 mmHg 78%

Depois de amanhã, 13 Abril, Terça-feira

Tempo Temperatura Precipitação Vento Pressão Humidade
00:00 +8°C° 0 mm 1 m/s 741 mmHg 80%
01:00 +8°C° 0 mm 1 m/s 741 mmHg 81%
02:00 +7°C° 0 mm 1 m/s 742 mmHg 84%
03:00 +6°C° 0 mm 1 m/s 742 mmHg 86%
04:00 +6°C° 0 mm 1 m/s 742 mmHg 88%
05:00 +6°C° 0 mm 1 m/s 742 mmHg 86%
06:00 +7°C° 0 mm 1 m/s 742 mmHg 83%
07:00 +7°C° 0 mm 1 m/s 742 mmHg 81%
08:00 +7°C° 0 mm 1 m/s 742 mmHg 81%
09:00 +8°C° 0 mm 1 m/s 742 mmHg 80%
10:00 +8°C° 0 mm 1 m/s 742 mmHg 80%
11:00 +7°C° 0.3 mm 2 m/s 742 mmHg 81%
12:00 +7°C° 0.3 mm 2 m/s 742 mmHg 83%
13:00 +7°C° 0.3 mm 2 m/s 742 mmHg 84%
14:00 +7°C° 1 mm 2 m/s 742 mmHg 85%
15:00 +8°C° 1 mm 1 m/s 742 mmHg 87%
16:00 +8°C° 1 mm 1 m/s 742 mmHg 89%
17:00 +7°C° 0.8 mm 1 m/s 743 mmHg 90%
18:00 +7°C° 0.8 mm 1 m/s 743 mmHg 92%
19:00 +6°C° 0.8 mm 0 m/s 743 mmHg 94%
20:00 +6°C° 0.4 mm 0 m/s 743 mmHg 94%
21:00 +6°C° 0.4 mm 0 m/s 743 mmHg 94%
22:00 +7°C° 0.4 mm 1 m/s 743 mmHg 94%
23:00 +7°C° 0.1 mm 1 m/s 743 mmHg 93%

14 Abril, Quarta-feira

Tempo Temperatura Precipitação Vento Pressão Humidade
00:00 +6°C° 0.1 mm 1 m/s 743 mmHg 92%
01:00 +6°C° 0.1 mm 1 m/s 743 mmHg 92%
02:00 +6°C° 0 mm 1 m/s 743 mmHg 91%
03:00 +6°C° 0 mm 1 m/s 743 mmHg 91%
04:00 +6°C° 0 mm 1 m/s 743 mmHg 91%
05:00 +6°C° 0 mm 1 m/s 744 mmHg 88%
06:00 +5°C° 0 mm 2 m/s 744 mmHg 85%
07:00 +6°C° 0 mm 2 m/s 744 mmHg 82%
08:00 +7°C° 0 mm 2 m/s 744 mmHg 73%
09:00 +9°C° 0 mm 2 m/s 744 mmHg 65%
10:00 +10°C° 0 mm 2 m/s 744 mmHg 56%
11:00 +11°C° 0 mm 3 m/s 744 mmHg 49%
12:00 +12°C° 0 mm 3 m/s 744 mmHg 42%
13:00 +13°C° 0 mm 3 m/s 744 mmHg 36%
14:00 +13°C° 0 mm 3 m/s 743 mmHg 35%
15:00 +13°C° 0 mm 3 m/s 743 mmHg 35%
16:00 +13°C° 0 mm 3 m/s 743 mmHg 34%
17:00 +11°C° 0 mm 3 m/s 743 mmHg 43%
18:00 +9°C° 0 mm 2 m/s 744 mmHg 51%
19:00 +7°C° 0 mm 2 m/s 744 mmHg 59%
20:00 +6°C° 0 mm 2 m/s 744 mmHg 62%
21:00 +7°C° 0 mm 1 m/s 744 mmHg 65%
22:00 +6°C° 0 mm 1 m/s 744 mmHg 68%
23:00 +6°C° 0 mm 1 m/s 744 mmHg 70%

15 Abril, Quinta-feira

Tempo Temperatura Precipitação Vento Pressão Humidade
00:00 +5°C° 0 mm 1 m/s 744 mmHg 71%
01:00 +5°C° 0 mm 1 m/s 744 mmHg 72%
02:00 +5°C° 0 mm 1 m/s 744 mmHg 74%
03:00 +4°C° 0 mm 1 m/s 744 mmHg 76%
04:00 +4°C° 0 mm 1 m/s 745 mmHg 78%
05:00 +5°C° 0 mm 1 m/s 745 mmHg 74%
06:00 +7°C° 0 mm 1 m/s 745 mmHg 70%
07:00 +8°C° 0 mm 1 m/s 745 mmHg 67%
08:00 +10°C° 0 mm 1 m/s 745 mmHg 59%
09:00 +12°C° 0 mm 2 m/s 745 mmHg 52%
10:00 +14°C° 0 mm 2 m/s 745 mmHg 44%
11:00 +15°C° 0 mm 2 m/s 745 mmHg 42%
12:00 +16°C° 0 mm 2 m/s 745 mmHg 39%
13:00 +17°C° 0 mm 2 m/s 745 mmHg 37%
14:00 +17°C° 0 mm 3 m/s 745 mmHg 37%
15:00 +17°C° 0 mm 3 m/s 744 mmHg 38%
16:00 +17°C° 0 mm 3 m/s 744 mmHg 39%
17:00 +13°C° 0 mm 3 m/s 745 mmHg 48%
18:00 +12°C° 0 mm 2 m/s 745 mmHg 58%
19:00 +9°C° 0 mm 2 m/s 745 mmHg 67%
20:00 +8°C° 0 mm 2 m/s 745 mmHg 70%
21:00 +7°C° 0 mm 2 m/s 745 mmHg 73%
22:00 +7°C° 0 mm 2 m/s 746 mmHg 76%
23:00 +7°C° 0 mm 1 m/s 746 mmHg 77%

16 Abril, Sexta-feira

Tempo Temperatura Precipitação Vento Pressão Humidade
00:00 +7°C° 0 mm 1 m/s 746 mmHg 79%
01:00 +6°C° 0 mm 1 m/s 746 mmHg 80%
02:00 +6°C° 0 mm 1 m/s 746 mmHg 81%
03:00 +5°C° 0 mm 1 m/s 746 mmHg 83%
04:00 +5°C° 0 mm 1 m/s 747 mmHg 84%
05:00 +6°C° 0 mm 1 m/s 747 mmHg 80%
06:00 +6°C° 0 mm 0 m/s 747 mmHg 75%
07:00 +7°C° 0 mm 0 m/s 748 mmHg 71%
08:00 +9°C° 0 mm 0 m/s 748 mmHg 64%
09:00 +12°C° 0 mm 0 m/s 748 mmHg 58%
10:00 +15°C° 0 mm 1 m/s 748 mmHg 52%
11:00 +15°C° 0 mm 1 m/s 747 mmHg 49%
12:00 +16°C° 0 mm 1 m/s 747 mmHg 46%
13:00 +18°C° 0 mm 1 m/s 747 mmHg 44%
14:00 +16°C° 0 mm 1 m/s 746 mmHg 46%
15:00 +16°C° 0 mm 1 m/s 746 mmHg 48%
16:00 +16°C° 0 mm 1 m/s 746 mmHg 50%
17:00 +14°C° 0 mm 1 m/s 746 mmHg 55%
18:00 +13°C° 0 mm 1 m/s 746 mmHg 59%
19:00 +12°C° 0 mm 1 m/s 746 mmHg 64%
20:00 +11°C° 0 mm 0 m/s 746 mmHg 65%
21:00 +10°C° 0 mm 0 m/s 746 mmHg 66%
22:00 +10°C° 0 mm 0 m/s 746 mmHg 68%
23:00 +9°C° 0 mm 0 m/s 746 mmHg 71%
Mostrar mais

Necessitamos do seu Consentimento

A Meteoprog e os seus Fornecedores de Serviços podem armazenar e aceder a dados pessoais como cookies, identificadores do dispositivo ou outras tecnologias semelhantes existentes no seu dispositivo e processar estes dados para personalizar conteúdos e anúncios, assim como funcionalidades nas redes sociais e análise de tráfego.

  • Armazenar e/ou aceder a informações no seu dispositivo

    Os cookies, identificadores do dispositivo ou outras informações podem ser armazenados ou acedidos no seu dispositivo, para os fins acima indicados.

  • Anúncios e conteúdos personalizados, medição de anúncios e conteúdos, dados sobre o público-alvo e desenvolvimento de produtos

    Os anúncios e os conteúdos podem ser personalizados com base num perfil. Podem ser adicionados dados adicionais para uma maior personalização dos anúncios e dos conteúdos. A eficácia dos anúncios e dos conteúdos pode ser medida. Podem ser obtidas informações sobre o público que visualizou os anúncios e os conteúdos. Estes dados podem ser usados para desenvolver ou melhorar sistemas, softwares ou a experiência do utilizador.

Ao clicar em "Eu concordo”, permitirá o uso de cookies, identificadores do dispositivo e web beacons mencionados ou outras tecnologias semelhantes. As configurações do navegador do seu dispositivo podem ser alteradas.

Para certos fins, podem ser invocados interesses legítimos ao invés de consentimento. Pode ler mais informação sobre este assunto na nossa Política de Privacidade e Cookies.